Vertical_Velocity
-5 -3 -6 -3 -0 -3 -2 0 -2 -7 -3 -1 -4 -5 -4 -5 -3 -3 -2 -1 -1 -1
-2 -3 -3 -1 0 1 -1 -3 -6 -2 -2 -1 -3 -2 -3 -0 0 -5 -2 -1 -0 -0
-2 -2 -2 -2 -1 -2 -1 -5 -4 -3 -2 -3 -3 -0 -4 -0 -3 -3 -3 -3 -2 -3
-1 -1 -1 1 -0 0 3 -4 -4 -0 -2 -3 -1 -2 -3 -2 -2 -3 -3 -0 -1 -2
-2 -1 1 5 2 5 -5 -2 -1 -1 -2 -0 -2 -4 -1 -1 -1 -3 -1 -0 -0 -1
-2 -2 -3 -3 -2 2 -3 -2 1 -1 -1 1 -3 -3 -2 0 -2 -2 -1 -1 2 -4
-2 -2 -2 -4 -2 -1 1 1 -1 -1 1 -0 -2 -2 -2 0 -2 -3 -2 -1 2 -1
-5 -2 -0 -2 -1 0 0 2 -3 -2 3 0 -3 -1 -2 1 -1 -3 -1 -0 0 1
-0 -2 0 0 -3 1 3 -0 -2 -1 2 0 -1 -3 0 -2 -1 -2 -3 1 -0 1
0 0 -0 -1 0 1 0 -0 -1 0 1 -0 -1 -0 1 -1 -3 -2 -1 -0 1 1
1 -1 1 0 1 -1 -1 0 1 1 0 -0 -1 -0 1 0 -0 -3 -2 -1 -1 -1
1 0 -1 0 1 -1 0 1 2 1 1 -1 -1 -1 -0 0 -0 -1 -0 -1 -1 -2
-1 -0 -1 1 0 -0 1 1 1 1 1 -1 0 0 -1 -1 0 1 -2 -1 0 -2
-2 -1 -0 1 -0 -1 0 -0 0 1 1 -0 -1 -0 -1 -0 -0 -0 -0 -1 -0 -0
Height
3065 3061 3059 3057 3054 3051 3048 3044 3039 3033 3027 3022 3016 3007 3000 2991 2981 2973 2967 2961 2956 2952
3060 3057 3054 3051 3049 3046 3042 3039 3035 3030 3025 3021 3014 3007 3000 2992 2984 2975 2966 2961 2955 2950
3055 3052 3049 3047 3044 3042 3037 3036 3032 3028 3024 3019 3013 3007 3000 2993 2985 2976 2969 2961 2956 2951
3050 3047 3045 3042 3040 3038 3035 3032 3030 3026 3022 3017 3013 3007 3000 2994 2987 2978 2971 2964 2956 2951
3045 3043 3040 3037 3036 3034 3032 3029 3027 3024 3020 3016 3013 3007 3002 2996 2989 2981 2974 2967 2959 2952
3039 3037 3035 3034 3033 3031 3028 3027 3025 3022 3019 3015 3012 3007 3003 2997 2990 2984 2976 2971 2965 2958
3035 3033 3031 3030 3028 3028 3025 3024 3022 3020 3017 3013 3011 3006 3003 2998 2992 2987 2980 2975 2970 2965
3029 3028 3026 3025 3024 3024 3023 3021 3019 3017 3015 3012 3009 3006 3003 2998 2993 2989 2984 2980 2975 2970
3022 3022 3021 3021 3021 3021 3019 3017 3016 3015 3013 3010 3007 3005 3002 2999 2995 2990 2986 2982 2978 2974
3017 3017 3017 3017 3016 3016 3015 3013 3012 3012 3011 3008 3006 3004 3001 2999 2996 2992 2988 2985 2981 2978
3012 3012 3012 3012 3012 3011 3011 3010 3010 3009 3008 3006 3004 3002 3000 2997 2995 2993 2990 2987 2984 2980
3007 3007 3007 3007 3007 3007 3007 3007 3006 3006 3005 3003 3001 3000 2998 2997 2994 2992 2990 2988 2985 2982
3002 3002 3002 3003 3002 3003 3003 3003 3003 3002 3002 3001 2999 2997 2996 2994 2992 2991 2989 2987 2985 2983
2996 2997 2997 2998 2998 2998 2999 2999 2999 2999 2998 2998 2996 2995 2993 2992 2990 2988 2987 2985 2983 2982